{"data":{"norad_id":57528,"intl_designator":"2023-115H","name":"STARLINK-30269","alt_names":[],"object_type":"PAYLOAD","status":"ACTIVE","operator":null,"country":"US","launch_date":"2023-08-08","launch_site_code":"AFWTR","launch_vehicle":null,"mission":null,"orbit_class":"UNKNOWN","rcs_meters":null,"size_class":null,"mass_kg":null,"dimensions":null,"purposes":["comms"],"wikipedia_slug":null,"has_3d_model":false,"image_url":null,"decayed_at":null,"tle_current":{"epoch":"2026-09-19T13:02:02.150016Z","epoch_age_seconds":210324,"freshness":"STALE","line1":"1 57528U 23115H   26262.54308044  .00000478  00000+0  26925-4 0  9991","line2":"2 57528  43.0056 347.2692 0002531 288.9833  71.0745 15.27576995171999","mean_motion":15.27576995,"eccentricity":0.0002531,"inclination_deg":43.0056,"raan_deg":347.2692,"arg_perigee_deg":288.9833,"mean_anomaly_deg":71.0745,"bstar":2.6925e-5,"rev_number":17199,"period_min":94.266934152147,"perigee_km":481.32152562713,"apogee_km":484.79466258376,"semimajor_km":6861.1950941054,"source":"CELESTRAK","updated_at":"2026-09-21T09:00:33.638141Z"}}}